GFSNIL_850_spd_231.txt.gz
Wind_Speed
44 44 43 42 42 44 42 41 39 36 35 34 34 33 33 33 32 32 32 32 30 29
45 41 43 40 42 42 42 43 40 38 36 34 30 29 31 33 33 33 33 34 32 30
44 42 41 41 40 40 39 38 38 38 37 36 33 31 32 31 32 33 33 34 33 31
44 42 40 40 38 36 37 35 38 36 35 33 31 33 31 31 30 31 31 30 31 31
43 39 37 34 32 30 28 29 26 27 32 28 27 27 29 31 28 28 29 30 31 31
45 39 36 33 31 29 29 30 28 28 30 29 25 24 23 26 29 31 32 31 31 27
46 43 39 32 30 29 28 28 28 26 25 24 21 20 20 22 25 27 27 30 27 23
42 39 34 28 27 26 26 26 26 25 24 22 23 21 18 18 18 20 19 19 20 21
37 32 30 32 30 28 25 16 12 17 20 21 22 20 18 19 18 18 18 20 17 16
36 34 30 35 41 39 29 10 2 3 9 12 12 15 18 17 17 17 14 13 14 14
36 35 38 44 45 46 45 38 28 18 7 2 7 8 10 11 13 13 8 12 14 14
30 36 41 43 44 44 36 41 40 41 39 27 12 12 10 6 10 9 11 9 11 12
32 34 38 41 42 44 50 51 48 43 40 43 42 35 31 31 37 37 41 34 30 30
32 32 35 37 42 44 49 51 51 53 51 50 44 40 36 39 46 48 50 48 44 41

GFSNIL_850_spd_234.txt.gz
Wind_Speed
41 38 39 38 38 38 37 36 32 30 29 30 29 29 29 29 28 27 26 27 27 25
41 38 37 36 36 38 35 35 36 32 29 29 28 28 28 29 30 28 27 26 26 26
42 39 38 36 35 34 34 32 31 30 32 31 27 27 26 27 27 28 29 27 26 26
44 39 37 36 33 30 29 29 28 26 28 28 26 24 24 25 26 25 27 28 26 25
46 40 36 33 28 28 28 24 22 22 23 23 23 22 21 22 24 25 26 25 24 24
41 39 34 31 26 24 25 25 22 22 21 19 18 22 23 21 20 23 24 22 23 23
43 38 32 30 28 27 20 20 21 22 19 18 17 18 16 19 18 19 21 22 22 23
38 40 42 43 41 34 14 7 13 18 19 17 16 17 15 15 16 18 20 23 22 23
38 42 43 45 43 37 25 13 3 6 13 15 16 15 14 14 13 14 14 16 16 18
38 39 42 43 42 43 40 30 15 6 2 8 11 11 14 13 16 12 12 13 15 16
39 37 38 40 41 44 41 42 46 22 8 7 5 4 5 8 11 13 11 9 12 10
37 38 40 43 44 45 45 48 48 46 33 21 15 7 3 8 10 10 10 7 7 9
36 36 38 40 42 43 48 51 51 49 39 33 30 26 24 20 24 29 26 13 10 10
40 38 36 37 39 41 46 50 51 52 51 46 39 35 34 35 38 43 44 44 41 36

GFSNIL_850_spd_237.txt.gz
Wind_Speed
41 39 37 36 36 37 37 37 33 33 33 34 34 32 29 31 31 31 31 29 29 27
42 39 34 31 32 33 31 31 36 34 34 34 32 31 31 32 31 30 32 32 30 28
41 38 36 32 29 29 30 28 26 30 31 26 28 27 27 29 31 31 29 30 29 27
44 40 37 34 30 26 23 24 23 22 25 29 23 26 29 29 26 26 28 28 27 26
42 38 36 33 30 26 22 18 20 17 18 20 23 24 26 24 21 22 25 24 26 26
38 38 41 42 40 34 19 10 14 15 15 16 16 19 22 20 20 21 21 23 25 24
40 35 38 41 40 33 14 4 8 11 13 13 12 13 14 17 19 18 18 20 23 22
38 35 34 37 41 37 26 12 3 6 10 10 10 10 11 11 11 14 15 17 21 23
40 37 36 36 37 39 38 23 7 3 6 10 12 10 9 9 11 9 12 17 19 21
42 40 39 38 41 44 47 34 17 12 8 2 6 9 9 10 15 9 11 13 13 15
43 41 40 42 44 47 47 48 36 21 16 14 5 2 3 8 10 11 10 8 9 11
44 42 40 43 46 47 48 49 49 39 30 28 23 8 1 4 6 9 6 3 3 2
38 40 42 41 40 42 46 48 48 49 47 36 31 16 15 14 23 27 25 16 3 6
34 37 36 36 37 40 39 41 45 49 51 50 46 37 31 30 36 38 38 36 36 32

GFSNIL_850_spd_240.txt.gz
Wind_Speed
37 39 39 37 35 31 31 34 36 33 31 30 30 31 32 28 28 35 34 28 30 31
41 41 41 37 35 34 30 27 29 29 32 33 26 27 27 28 28 27 26 23 32 30
44 42 36 33 37 37 30 23 22 24 24 24 26 30 27 29 30 27 30 31 25 22
43 38 34 34 37 39 33 21 13 17 17 19 22 25 20 24 26 28 27 27 33 32
43 41 37 33 35 38 21 8 5 10 12 13 15 18 21 22 25 28 30 26 25 27
46 45 39 35 32 31 25 11 4 5 8 8 10 11 17 18 19 21 20 21 23 25
49 47 41 37 35 30 23 14 6 2 4 5 6 8 8 11 16 16 19 19 20 21
48 46 44 44 44 40 25 17 13 4 0 4 4 4 5 7 6 9 16 16 16 17
49 46 48 49 46 40 35 34 22 14 6 2 4 5 5 6 6 5 5 10 10 12
47 47 44 45 47 46 42 41 37 27 11 10 6 5 7 9 16 10 7 8 10 13
43 42 45 41 44 48 47 45 44 41 27 22 27 5 3 5 8 9 13 9 9 12
38 37 39 40 41 41 46 49 48 47 44 35 29 14 5 4 1 3 4 6 5 5
36 34 31 35 37 37 41 44 47 49 52 48 45 35 28 26 32 33 31 21 26 22
36 34 30 28 33 32 35 38 42 49 48 45 46 45 42 42 47 49 49 45 40 35

GFSNIL_850_spd_246.txt.gz
Wind_Speed
43 41 37 35 32 30 28 29 30 25 21 16 19 13 21 28 28 24 25 28 32 34
45 47 46 40 34 27 23 27 24 11 12 9 12 16 12 20 25 26 23 25 26 24
45 46 40 38 36 27 23 22 20 13 7 5 5 7 16 13 21 23 25 27 29 27
43 44 38 33 30 29 27 21 18 13 7 4 4 6 10 8 18 19 21 23 23 28
39 42 39 35 30 25 27 23 18 14 10 8 6 5 7 9 12 10 18 16 15 18
38 42 39 36 32 27 22 20 17 14 11 10 8 5 4 6 8 12 13 14 18 19
38 36 39 36 34 33 31 27 19 17 14 11 10 10 9 7 11 15 10 13 14 14
36 32 33 37 38 36 38 40 37 26 15 12 15 12 7 5 6 7 12 14 13 16
33 33 31 33 38 39 41 41 42 40 39 35 18 9 11 13 17 5 8 7 8 13
31 33 32 33 35 38 41 42 44 44 46 42 33 16 4 10 13 15 3 5 4 5
31 30 30 29 32 36 37 40 41 43 46 46 40 34 24 8 6 9 3 1 6 9
32 31 29 30 30 31 35 37 38 40 39 45 42 41 41 42 41 38 33 26 15 9
30 31 31 31 32 33 32 31 33 36 38 41 39 38 35 39 40 40 38 34 31 26
27 30 32 31 29 31 35 37 38 35 31 33 34 34 32 33 36 33 33 32 30 28